Location: Saint-Allouestre
(47.9167°N, 2.8833°W)
Time: 21:07:40
(UTC+00:00)

Daily predictions for brighter satellites

Satellite Brightness Start Highest point End
(mag) Time Altitude Azimuth Time Altitude Azimuth Time Altitude Azimuth
Lacrosse 5 rocket 1.4 16:46:37 10° SW 16:50:58 83° NW 16:55:05 10° NE
Cosmos 2369 Rocket 3.8 16:49:37 10° N 16:52:41 15° NE 16:55:44 10° ENE
SMAP 3.5 16:50:47 10° SE 16:55:06 39° ENE 16:59:27 10° N
NOAA 6 4.2 16:51:07 10° SSE 16:56:15 82° WSW 17:01:24 10° NNW
YAOGAN 6 4.5 16:55:42 10° E 16:56:58 12° ENE 16:58:13 10° NE
SL-4 R/B 2.1 16:53:28 10° W 16:57:06 57° NNW 17:01:01 10° ENE
SJ-7 4.4 16:53:39 10° SSE 16:57:48 68° ENE 17:01:55 10° N
Cosmos 921 Rocket 4.1 16:55:19 10° N 16:58:43 22° ENE 17:02:10 10° ESE
Cosmos 1743 4.5 16:57:05 10° NE 16:58:56 13° ENE 17:00:46 10° E
SL-16 R/B 3.5 16:55:52 10° SE 16:59:56 20° E 17:04:00 10° NE
IRS-1C Rocket 4.2 16:55:50 10° SE 17:00:56 53° ENE 17:06:03 10° N
Meteor 2-6 Rocket 4.2 16:57:27 10° S 17:02:50 87° W 17:08:19 10° N
FALCON 9 DEB 4.2 17:00:10 10° SSW 17:03:22 34° SE 17:06:33 10° ENE
Aureole 1 Rocket 3.8 17:01:44 10° SE 17:03:54 18° E 17:06:12 10° NE
Cosmos 1867 4.4 16:59:46 10° NNW 17:04:37 31° NE 17:09:25 10° E
ALOS 3.3 17:01:26 10° S 17:05:58 51° W 17:10:33 10° NNW
NOSS 0 Rocket 4.0 17:00:56 10° SSW 17:07:07 71° ESE 17:13:21 10° NNE
Cosmos 2237 Rocket 2.4 17:02:56 10° S 17:08:31 59° ESE 17:14:07 10° NE
CORIOLIS 4.4 17:03:54 10° SE 17:09:07 49° ENE 17:14:21 10° N
Cosmos 2333 Rocket 2.8 17:06:20 10° SW 17:11:59 58° WNW 17:17:43 10° NNE
Cosmos 1812 2.7 17:08:21 10° S 17:12:11 69° E 17:16:04 10° NNE
ATLAS 5 CENTAUR R/B 2.1 17:10:30 10° S 17:12:32 24° SE 17:13:53 13° ENE
Cosmos 2322 Rocket 4.4 17:09:24 10° WNW 17:12:55 17° NW 17:16:28 10° N
CZ-4 R/B 2.9 17:11:13 10° E 17:13:29 15° ENE 17:15:43 10° NNE
ATLAS 2AS CENTAUR R/B 3.9 17:09:01 10° WSW 17:16:34 42° NNW 17:24:02 10° NE
Cosmos 2219 Rocket 2.9 17:12:40 10° SW 17:18:09 53° WNW 17:23:42 10° NNE
Cosmos 1782 Rocket 4.4 17:15:16 10° NNE 17:19:01 27° ENE 17:22:45 10° SE
Cosmos 1500 3.3 17:15:25 10° NNW 17:19:11 78° W 17:22:54 10° S
Cosmos 292 Rocket 3.8 17:14:38 10° NNW 17:19:29 63° ENE 17:24:18 10° SE
SL-16 R/B 4.4 17:20:11 10° WNW 17:22:59 14° NNW 17:25:48 10° N
NOSS 5 (C) 4.4 17:20:17 10° NW 17:23:31 78° NE 17:27:39 10° SE
Cosmos 1943 Rocket 3.3 17:19:04 10° N 17:23:33 23° NE 17:27:53 10° E
STARLINK-67 3.9 17:23:52 10° WNW 17:26:17 26° N 17:27:38 18° NE
ISS -0.8 17:24:22 10° W 17:26:49 19° SW 17:29:17 10° S
Okean 2 Rocket 4.5 17:24:33 10° NNE 17:27:35 18° ENE 17:30:37 10° ESE
Cosmos 1862 Rocket 3.6 17:23:35 10° S 17:27:57 87° WNW 17:32:23 10° N
Sich 1 Rocket 4.4 17:25:58 10° NNE 17:29:45 27° ENE 17:33:31 10° SE
Cosmos 1703 Rocket 4.1 17:27:19 10° SSE 17:31:29 39° E 17:35:39 10° NNE
STARLINK-52 3.7 17:28:20 10° SW 17:31:43 45° SE 17:33:53 19° E
Cosmos 1975 4.1 17:31:38 10° NNE 17:34:39 20° ENE 17:37:39 10° ESE
PSLV R/B 4.0 17:31:39 10° NNE 17:35:50 82° WNW 17:39:55 10° SSW
STARLINK-46 3.8 17:35:58 10° WNW 17:38:21 29° N 17:39:21 22° NNE
CSL-04 Rocket 4.4 17:34:01 10° ESE 17:38:30 29° ENE 17:43:01 10° N
Shenzhou-11 Module 4.4 17:37:39 10° WSW 17:39:35 17° SSW 17:41:30 10° SSE
STARLINK-60 3.0 17:36:18 10° WSW 17:39:40 82° SSE 17:41:33 24° ENE
STARLINK-29 3.4 17:36:22 10° SW 17:39:49 57° SSE 17:41:45 24° ENE
Cosmos 1980 3.8 17:34:26 10° SSW 17:40:06 79° WNW 17:45:48 10° NNE
USA 215 3.3 17:36:17 15° NE 17:41:59 82° NNW 17:48:31 10° WSW
Okean O Rocket 3.8 17:38:32 10° SSW 17:42:17 28° W 17:46:04 10° NW
Cosmos 1441 Rocket 3.2 17:40:05 10° N 17:43:51 56° ENE 17:47:33 10° SSE
H-2A R/B 2.8 17:40:57 10° S 17:44:37 75° WSW 17:48:20 10° NNW
Cosmos 614 Rocket 4.3 17:43:43 10° S 17:48:30 43° ESE 17:51:50 19° NE
Cosmos 2297 3.6 17:42:53 10° NNW 17:48:37 74° ENE 17:54:16 10° SSE
Meteor 1-27 Rocket 4.1 17:44:03 10° SSW 17:49:48 69° WNW 17:55:42 10° N
Cosmos 2242 Rocket 3.7 17:45:28 10° S 17:50:02 82° W 17:54:40 10° N
COBE Rocket 3.8 17:47:22 10° NNE 17:52:03 86° WNW 17:56:45 10° SSW
Cosmos 1092 Rocket 3.9 17:46:27 10° S 17:52:43 77° E 17:58:59 10° NNE
Exosat Rocket 4.1 17:48:00 10° SW 17:53:04 56° WNW 17:58:07 10° NNE
Cosmos 1174 4.2 17:50:24 10° SSW 17:55:16 53° ESE 17:57:14 28° ENE
Genesis I 3.6 17:53:53 10° NW 17:57:46 64° SW 18:01:33 10° SSE
Cosmos 1908 Rocket 4.0 17:57:45 10° NNW 18:02:07 65° W 18:06:25 10° S
Cosmos 1666 3.3 17:59:36 10° NNW 18:03:18 57° W 18:06:56 10° S
Okean-O 2.7 17:59:31 10° SSE 18:03:57 83° WSW 18:08:25 10° NNW
COSMOS 2428 4.4 18:00:23 10° WSW 18:05:14 28° NW 18:10:08 10° NNE
BREEZE-M R/B 2.6 18:02:18 10° WNW 18:07:38 75° N 18:08:34 45° E
COSMO-SKYMED 1 2.7 18:06:07 24° NNE 18:08:28 51° E 18:12:41 10° S
Envisat 3.0 18:04:16 10° SSE 18:09:21 84° WSW 18:14:29 10° NNW
CZ-4 R/B 4.4 18:05:32 10° SSE 18:09:38 62° ENE 18:13:45 10° N
Okean 1-7 2.9 18:05:38 10° S 18:09:58 81° E 18:13:53 13° NNE
Cosmos 1140 Rocket 3.7 18:05:30 10° S 18:10:21 45° ESE 18:12:14 31° NE
NOAA 12 4.4 18:06:07 10° S 18:11:24 70° WSW 18:16:42 10° NNW
YAOGAN 1 2.6 18:10:25 10° SE 18:14:36 50° ENE 18:18:48 10° N
Meteor 2-9 Rocket 4.4 18:10:55 10° N 18:16:41 53° ENE 18:22:19 10° SSE
NOSS 3-1 (C) 4.3 18:09:57 10° NW 18:16:52 46° NE 18:20:52 28° E
USA 267 3.9 18:10:42 10° SE 18:17:05 55° SW 18:23:30 10° WNW
Meteor 1-18 Rocket 4.2 18:12:41 10° S 18:18:19 63° E 18:23:06 14° NNE
Cosmos 407 Rocket 3.4 18:13:55 10° SSW 18:19:06 76° ESE 18:22:12 25° NNE
Cosmos 1023 Rocket 4.5 18:15:08 10° S 18:20:05 55° ESE 18:21:54 36° NE
NOAA 11 4.3 18:17:01 10° SE 18:22:15 50° ENE 18:27:34 10° N
S3M 4.0 18:18:53 10° N 18:25:00 55° ENE 18:31:00 10° SSE
BREEZE-M DEB (TANK) 3.4 18:22:49 10° WNW 18:26:33 30° SW 18:27:34 22° S
USA 229 DEB 4.0 18:19:48 10° NW 18:26:45 50° NE 18:29:44 33° E
USA 229 4.0 18:19:54 10° NW 18:26:51 50° NE 18:29:47 34° E
Uosat 12 SS-18 rocket 4.1 18:24:34 10° NNW 18:29:26 58° NE 18:29:53 55° ENE
YAOGAN 6 2.9 18:26:25 10° S 18:29:56 65° W 18:33:33 10° NNW
Cosmos 1428 Rocket 4.4 18:23:51 10° S 18:30:02 90° W 18:36:21 10° N
CZ-4C R/B 3.8 18:26:32 10° SSE 18:28:04 16° SE 18:28:04 16° SE
Lacrosse 5 rocket 2.6 18:26:57 10° WNW 18:30:35 28° NNW 18:31:14 26° N
NOSS 3-1 (A) 4.4 18:25:15 10° NW 18:32:01 42° NE 18:34:15 35° ENE
SKYMED 3 4.5 18:30:31 30° NNE 18:32:38 90° WNW 18:36:59 10° SSW
Cosmos 2266 Rocket 4.4 18:27:59 10° SSE 18:33:52 40° E 18:33:59 40° E
Cosmos 1743 3.2 18:31:18 10° NNW 18:35:07 60° W 18:38:56 10° S
Cosmos 1553 Rocket 3.9 18:30:29 10° N 18:36:53 85° E 18:43:20 10° S
SL-4 R/B 2.3 18:33:20 10° WNW 18:36:53 50° N 18:36:53 50° N
Cosmos 921 Rocket 4.2 18:33:08 10° NNW 18:37:12 42° WSW 18:41:18 10° S
Cosmos 2369 Rocket 2.2 18:32:26 10° NNW 18:38:00 57° ENE 18:39:07 48° E
Okean 1 3.5 18:35:57 10° SSW 18:39:55 68° W 18:41:13 40° N
FALCON 9 DEB 3.8 18:36:54 10° W 18:39:55 51° NW 18:39:55 51° NW
SL-16 R/B 2.4 18:37:46 10° SW 18:43:26 71° WNW 18:46:25 29° NNE
CZ-4 R/B 1.9 18:44:18 10° S 18:48:07 55° W 18:51:55 10° NNW
Aureole 1 Rocket 4.4 18:45:40 10° WSW 18:48:09 22° NW 18:48:52 21° NW
Cosmos 1867 3.9 18:43:12 10° NW 18:48:38 65° WSW 18:52:47 17° SSE
Cosmos 2026 Rocket 4.4 18:43:43 10° SSW 18:49:41 58° WNW 18:55:41 10° N
Cosmos 1603 4.3 18:45:08 10° S 18:49:20 39° SE 18:49:20 39° SE
Ariane Rocket 4.4 18:55:13 25° N 18:55:13 25° N 18:57:25 10° N
Cosmos 2237 Rocket 3.8 18:48:02 10° WSW 18:52:57 29° NW 18:56:54 14° N
SeaSat 1 4.2 18:55:55 19° N 18:55:55 19° N 18:57:35 10° NNW
SKYMED 2 4.3 18:54:46 31° NNW 18:56:36 52° WNW 19:00:48 10° SSW
Okean 2 Rocket 3.7 19:01:39 10° NNW 19:06:03 56° W 19:10:26 10° S
Meteor 2-4 Rocket 3.6 19:01:06 10° S 19:06:55 77° ESE 19:06:55 77° ESE
Cosmos 1943 Rocket 2.2 19:02:18 10° NNW 19:07:57 77° WSW 19:09:31 49° S
Cosmos 2221 Rocket 4.1 19:04:18 10° SSW 19:08:41 59° W 19:08:41 59° W
ATLAS 2AS CENTAUR R/B 4.3 19:03:19 10° WNW 19:09:45 25° N 19:12:00 22° NNE
Cosmos 1975 4.2 19:07:33 10° NNW 19:11:16 37° W 19:14:58 10° SSW
Meteor 1-19 Rocket 4.4 19:05:56 10° SSW 19:11:24 67° WNW 19:13:28 38° N
Cosmos 883 Rocket 4.3 19:08:48 10° N 19:23:52 - S 19:15:01 78° ENE
Cosmos 676 Rocket 4.2 19:11:50 10° SSW 19:16:57 69° WNW 19:16:57 69° WNW
Cosmos 2344 4.3 19:08:17 10° NW 19:17:41 73° NE 19:22:29 43° ESE
Meteor 1-12 Rocket 4.4 19:13:46 10° NNW 19:19:38 74° W 19:25:22 10° S
Lacrosse 5 3.5 19:18:16 10° SSW 19:20:28 24° SSW 19:20:28 24° SSW
Cosmos 1954 Rocket 4.4 19:19:24 10° SW 19:24:07 61° W 19:24:07 61° W
USA 215 3.8 19:23:38 42° N 19:24:36 45° NNW 19:30:44 10° W
Cosmos 1241 Rocket 4.5 19:24:51 10° SW 19:31:07 78° WNW 19:31:07 78° WNW
NOSS 3-1 (C) 4.3 20:00:46 10° NW 20:08:12 63° WSW 20:08:20 63° SW
USA 229 DEB 4.5 20:10:52 10° NW 20:17:14 51° WSW 20:17:14 51° WSW
USA 229 4.5 20:10:58 10° NW 20:17:16 51° WSW 20:17:16 51° WSW
Cosmos 2369 Rocket 4.1 20:17:06 10° NW 20:21:00 25° W 20:21:00 25° W
